Kelso-Longview, WA
on Tuesday, February 5, 2013

Tuesday
Previous Day Next Day
Daily Summary
 ActualAverage (KSPB)Record (KSPB)
Temperature
Mean Temperature °F °F  
Max Temperature 53°F °F 57°F (2012)
Min Temperature 44°F °F 19°F (2014)
Degree Days
Heating Degree Days 16    
Month to date heating degree days  
Since 1 July heating degree days  
Cooling Degree Days 0    
Month to date cooling degree days  
Year to date cooling degree days  
Moisture
Dew Point 40°F   
Average Humidity 79    
Maximum Humidity 93    
Minimum Humidity 62    
Precipitation
Precipitation 0.07 in in 0.63 in (1999)
Month to date precipitation  
Year to date precipitation  
Wind
Wind Speed 8 mph   
Max Wind Speed 15 mph   
Max Gust Speed 23 mph   
Visibility 10 miles   
Events     

Key: T is trace of precipitation, MM is missing value
Source: NWS Daily Summary
Time(PST)TemperatureDew PointHumidity Pressure Visibility Wind DirectionWind SpeedGust SpeedPrecipitationEvents Conditions
12:15 AM 44.6°F 39.2°F 81% 29.95 in 10.0 miles Calm Calm - N/A   Overcast
12:35 AM 44.6°F 39.2°F 81% 29.95 in 10.0 miles SSE 5.8 mph - N/A   Mostly Cloudy
12:55 AM 44.6°F 39.2°F 81% 29.94 in 10.0 miles SE 8.1 mph - N/A   Mostly Cloudy
1:15 AM 44.6°F 39.2°F 81% 29.94 in 10.0 miles SSE 6.9 mph - N/A   Overcast
1:35 AM 44.6°F 39.2°F 81% 29.94 in 10.0 miles SSE 6.9 mph - N/A   Overcast
1:55 AM 44.6°F 39.2°F 81% 29.95 in 10.0 miles SSE 8.1 mph - N/A   Mostly Cloudy
2:15 AM 44.6°F 39.2°F 81% 29.95 in 10.0 miles SSE 8.1 mph - N/A   Mostly Cloudy
2:35 AM 44.6°F 39.2°F 81% 29.95 in 10.0 miles SSE 9.2 mph - N/A   Overcast
2:55 AM 44.6°F 39.2°F 81% 29.94 in 10.0 miles SSE 8.1 mph - N/A   Overcast
3:15 AM 44.6°F 39.2°F 81% 29.94 in 10.0 miles SSE 9.2 mph - N/A   Overcast
3:35 AM 44.6°F 39.2°F 81% 29.93 in 10.0 miles SSE 5.8 mph - N/A   Overcast
3:55 AM 44.6°F 39.2°F 81% 29.92 in 10.0 miles South 6.9 mph - N/A   Overcast
4:15 AM 46.4°F 39.2°F 76% 29.93 in 10.0 miles SSE 9.2 mph - N/A   Overcast
4:35 AM 44.6°F 39.2°F 81% 29.93 in 10.0 miles SSE 6.9 mph 16.1 mph N/A   Overcast
4:55 AM 44.6°F 39.2°F 81% 29.93 in 9.0 miles SSE 9.2 mph - N/A   Overcast
5:35 AM 44.6°F 39.2°F 81% 29.92 in 10.0 miles SE 9.2 mph - N/A   Overcast
5:55 AM 46.4°F 39.2°F 76% 29.91 in 10.0 miles SE 11.5 mph - N/A   Overcast
6:15 AM 44.6°F 39.2°F 81% 29.90 in 10.0 miles SE 10.4 mph 16.1 mph N/A   Overcast
6:35 AM 46.4°F 39.2°F 76% 29.90 in 10.0 miles SE 9.2 mph - N/A   Overcast
6:55 AM 46.4°F 39.2°F 76% 29.90 in 10.0 miles SSE 11.5 mph 16.1 mph N/A   Overcast
7:15 AM 46.4°F 39.2°F 76% 29.90 in 10.0 miles SSE 6.9 mph - N/A   Overcast
7:35 AM 46.4°F 39.2°F 76% 29.91 in 10.0 miles SSE 8.1 mph - N/A   Overcast
7:55 AM 46.4°F 39.2°F 76% 29.92 in 10.0 miles SE 10.4 mph 17.3 mph 0.01 in   Overcast
8:15 AM 44.6°F 39.2°F 81% 29.92 in 7.0 miles SSE 9.2 mph - N/A   Overcast
8:35 AM 44.6°F 41.0°F 87% 29.92 in 6.0 miles SSE 13.8 mph - N/A   Overcast
8:55 AM 44.6°F 39.2°F 81% 29.93 in 10.0 miles SSE 10.4 mph - N/A   Overcast
9:15 AM 44.6°F 41.0°F 87% 29.92 in 10.0 miles SSE 15.0 mph 19.6 mph N/A   Overcast
9:35 AM 46.4°F 41.0°F 81% 29.92 in 10.0 miles SSE 12.7 mph - N/A   Mostly Cloudy
9:55 AM 46.4°F 41.0°F 81% 29.92 in 10.0 miles SSE 15.0 mph 21.9 mph N/A   Mostly Cloudy
10:15 AM 48.2°F 41.0°F 76% 29.93 in 10.0 miles SSE 12.7 mph 21.9 mph N/A   Overcast
10:35 AM 48.2°F 41.0°F 76% 29.93 in 10.0 miles SSE 12.7 mph 21.9 mph N/A   Overcast
10:55 AM 48.2°F 42.8°F 82% 29.93 in 10.0 miles SSE 11.5 mph 23.0 mph N/A   Overcast
11:15 AM 48.2°F 42.8°F 82% 29.94 in 10.0 miles SSE 15.0 mph 20.7 mph N/A   Mostly Cloudy
11:35 AM 48.2°F 42.8°F 82% 29.94 in 10.0 miles SSE 12.7 mph 19.6 mph N/A   Mostly Cloudy
11:55 AM 48.2°F 42.8°F 82% 29.93 in 10.0 miles SSE 10.4 mph 17.3 mph N/A   Mostly Cloudy
12:15 PM 46.4°F 42.8°F 87% 29.94 in 7.0 miles SSW 8.1 mph - 0.01 in   Overcast
12:35 PM 48.2°F 44.6°F 87% 29.93 in 10.0 miles SSE 10.4 mph - 0.02 in   Mostly Cloudy
12:55 PM 50.0°F 44.6°F 82% 29.93 in 10.0 miles SSE 8.1 mph - 0.02 in   Scattered Clouds
1:15 PM 50.0°F 42.8°F 76% 29.92 in 10.0 miles SE 4.6 mph - N/A   Partly Cloudy
1:35 PM 51.8°F 42.8°F 71% 29.91 in 10.0 miles SSE 8.1 mph - N/A   Partly Cloudy
1:55 PM 51.8°F 42.8°F 71% 29.91 in 10.0 miles SSE 8.1 mph - N/A   Mostly Cloudy
2:15 PM 51.8°F 42.8°F 71% 29.90 in 10.0 miles SSE 10.4 mph - N/A   Mostly Cloudy
2:35 PM 53.6°F 42.8°F 67% 29.91 in 10.0 miles SE 10.4 mph - N/A   Mostly Cloudy
2:55 PM 53.6°F 42.8°F 67% 29.90 in 10.0 miles SSE 9.2 mph - N/A   Mostly Cloudy
3:15 PM 51.8°F 41.0°F 67% 29.90 in 10.0 miles SSE 11.5 mph 17.3 mph N/A   Mostly Cloudy
3:35 PM 51.8°F 41.0°F 67% 29.90 in 10.0 miles SSE 13.8 mph 17.3 mph N/A   Mostly Cloudy
3:55 PM 51.8°F 41.0°F 67% 29.90 in 10.0 miles SSE 11.5 mph 16.1 mph N/A   Mostly Cloudy
4:15 PM 51.8°F 39.2°F 62% 29.91 in 10.0 miles SSE 10.4 mph - N/A   Mostly Cloudy
4:35 PM 51.8°F 39.2°F 62% 29.92 in 10.0 miles SSE 10.4 mph 17.3 mph N/A   Overcast
4:55 PM 50.0°F 39.2°F 66% 29.93 in 10.0 miles South 12.7 mph 18.4 mph N/A   Overcast
5:15 PM 46.4°F 39.2°F 76% 29.94 in 7.0 miles South 5.8 mph - 0.03 in   Mostly Cloudy
5:35 PM 46.4°F 41.0°F 81% 29.94 in 10.0 miles Calm Calm - 0.03 in   Overcast
5:55 PM 44.6°F 42.8°F 93% 29.94 in 10.0 miles SE 3.5 mph - 0.03 in   Overcast
6:15 PM 46.4°F 42.8°F 87% 29.94 in 10.0 miles SSE 5.8 mph - N/A   Overcast
6:35 PM 46.4°F 41.0°F 81% 29.95 in 10.0 miles SSE 5.8 mph - N/A   Overcast
7:15 PM 46.4°F 41.0°F 81% 29.96 in 10.0 miles SSE 6.9 mph - N/A   Overcast
7:35 PM 46.4°F 41.0°F 81% 29.97 in 10.0 miles SSE 4.6 mph - N/A   Mostly Cloudy
7:55 PM 46.4°F 39.2°F 76% 29.97 in 10.0 miles SSE 6.9 mph - N/A   Overcast
8:15 PM 44.6°F 41.0°F 87% 29.98 in 10.0 miles SSE 10.4 mph - N/A   Overcast
8:35 PM 44.6°F 39.2°F 81% 29.98 in 10.0 miles SSE 6.9 mph - N/A   Overcast
8:55 PM 44.6°F 39.2°F 81% 29.99 in 10.0 miles South 8.1 mph - 0.01 in   Overcast
9:15 PM 44.6°F 39.2°F 81% 29.99 in 10.0 miles SSE 11.5 mph - N/A   Mostly Cloudy
9:35 PM 44.6°F 39.2°F 81% 30.00 in 10.0 miles SSE 8.1 mph - N/A   Mostly Cloudy
9:55 PM 44.6°F 39.2°F 81% 30.01 in 10.0 miles SSE 6.9 mph - N/A   Overcast
10:15 PM 44.6°F 39.2°F 81% 30.01 in 10.0 miles SSE 6.9 mph - N/A   Overcast
10:35 PM 44.6°F 39.2°F 81% 30.01 in 10.0 miles SSE 9.2 mph - N/A   Overcast
11:15 PM 44.6°F 39.2°F 81% 30.02 in 10.0 miles SSE 9.2 mph - N/A   Overcast
11:35 PM 44.6°F 39.2°F 81% 30.03 in 10.0 miles SSE 5.8 mph - N/A   Overcast
11:55 PM 44.6°F 39.2°F 81% 30.02 in 10.0 miles SE 9.2 mph - N/A   Overcast
Moon Phase
Feb. 05 Feb. 10 Feb. 17 Feb. 25 Mar. 04
Sunrise:07:28 AM (PST) Moon Rise:03:22 AM (PST)2/5
Sunset:05:23 PM (PST) Moon Set:12:39 PM (PST)2/5

Copyright © 2014 The Weather Underground, Inc.